North Wilkesboro, NC

12:22 AM EDT on September 20, 2017 (GMT -0400)
Wilkes County

Weather History for KUKF - March, 2014

Change the Weather History Date:

Sunday, March 23, 2014

  Actual Average Record
Temperature  
Mean Temperature 45 °F -  
Max Temperature 53 °F 61 °F 85 °F (1966)
Min Temperature 35 °F 33 °F 19 °F (2004)
Degree Days  
Heating Degree Days 20    
Moisture  
Dew Point 36 °F    
Average Humidity 74    
Maximum Humidity 100    
Minimum Humidity 46    
Precipitation  
Precipitation 0.22 in - - ()
Sea Level Pressure  
Sea Level Pressure 30.07 in    
Wind  
Wind Speed 2 mph (NNW)    
Max Wind Speed 12 mph    
Max Gust Speed 20 mph    
Visibility 9 miles    
Events Rain    
Averages and records for this station are not official NWS values.
T = Trace of Precipitation, MM = Missing Value Source: NWS Daily Summary

Daily Weather History Graph

Daily Weather History Graph

Search for Another Location

Airport or City:

Trip Planner

Search our weather history database for the weather conditions in past years. The results will help you decide how hot, cold, wet, or windy it might be!

Date:

Astronomy

Mar. 23, 2014 Rise Set
Actual Time 7:23 AM EDT 7:38 PM EDT
Civil Twilight 6:57 AM EDT 8:04 PM EDT
Nautical Twilight 6:27 AM EDT 8:34 PM EDT
Astronomical Twilight 5:57 AM EDT 9:05 PM EDT
Moon 1:45 AM EDT (3/23) 12:11 PM EDT (3/23)
Length of Visible Light 13h 06m
Length of Day
12h 15m
Waning Gibbous, 55% of the Moon is Illuminated
Mar 23
Waning Gibbous
Mar 23
Last Quarter
Mar 30
New
Apr 7
First Quarter
Apr 15
Full

Hourly Weather History & Observations

Time (EDT) Temp. Windchill Dew Point Humidity Pressure Visibility Wind Dir Wind Speed Gust Speed Precip Events Conditions
12:15 AM 53.6 °F - 39.2 °F 58% 30.03 in 10.0 mi Calm Calm - N/A   Clear
12:35 AM 50.0 °F - 37.4 °F 62% 30.03 in 10.0 mi North 3.5 mph - N/A   Clear
12:55 AM 51.8 °F - 39.2 °F 62% 30.04 in 10.0 mi Calm Calm - N/A   Clear
1:15 AM 48.2 °F - 39.2 °F 71% 30.04 in 10.0 mi Calm Calm - N/A   Clear
1:35 AM 46.4 °F - 37.4 °F 71% 30.04 in 10.0 mi Calm Calm - N/A   Clear
1:55 AM 46.4 °F - 37.4 °F 71% 30.04 in 10.0 mi Calm Calm - N/A   Clear
2:15 AM 46.4 °F 45.2 °F 37.4 °F 71% 30.03 in 10.0 mi North 3.5 mph - N/A   Clear
2:35 AM 44.6 °F - 37.4 °F 76% 30.03 in 10.0 mi Calm Calm - N/A   Clear
2:55 AM 44.6 °F - 37.4 °F 76% 30.02 in 10.0 mi Calm Calm - N/A   Clear
3:15 AM 42.8 °F - 37.4 °F 81% 30.02 in 10.0 mi Calm Calm - N/A   Clear
3:35 AM 44.6 °F - 37.4 °F 76% 30.01 in 10.0 mi Calm Calm - N/A   Clear
3:55 AM 41.0 °F - 37.4 °F 87% 30.00 in 10.0 mi Calm Calm - N/A   Clear
4:15 AM 44.6 °F - 37.4 °F 76% 30.00 in 10.0 mi Calm Calm - N/A   Clear
4:35 AM 44.6 °F - 37.4 °F 76% 30.00 in 10.0 mi Calm Calm - N/A   Clear
4:55 AM 44.6 °F - 35.6 °F 71% 29.99 in 10.0 mi Calm Calm - N/A   Clear
5:15 AM 42.8 °F - 35.6 °F 76% 30.00 in 10.0 mi Calm Calm - N/A   Clear
5:35 AM 41.0 °F - 37.4 °F 87% 30.01 in 10.0 mi Calm Calm - N/A   Clear
5:55 AM 42.8 °F - 37.4 °F 81% 30.01 in 10.0 mi Calm Calm - N/A   Clear
6:15 AM 41.0 °F - 35.6 °F 81% 30.02 in 10.0 mi Calm Calm - N/A   Mostly Cloudy
6:35 AM 41.0 °F - 37.4 °F 87% 30.01 in 10.0 mi Calm Calm - N/A   Scattered Clouds
6:50 AM 41.0 °F 39.0 °F 37.4 °F 87% 30.01 in 10.0 mi NE 3.5 mph - N/A   Scattered Clouds
7:15 AM 41.0 °F - 37.4 °F 87% 30.02 in 10.0 mi Calm Calm - N/A   Clear
7:35 AM 41.0 °F - 37.4 °F 87% 30.03 in 10.0 mi Calm Calm - N/A   Scattered Clouds
7:55 AM 42.8 °F - 37.4 °F 81% 30.04 in 10.0 mi Calm Calm - N/A   Mostly Cloudy
8:15 AM 44.6 °F 42.2 °F 37.4 °F 76% 30.04 in 10.0 mi ENE 4.6 mph - N/A   Overcast
8:35 AM 46.4 °F - 35.6 °F 66% 30.04 in 10.0 mi Calm Calm - N/A   Overcast
8:55 AM 44.6 °F - 37.4 °F 76% 30.08 in 10.0 mi Calm Calm - N/A Rain Rain
9:15 AM 44.6 °F - 41.0 °F 87% 30.09 in 7.0 mi Calm Calm - 0.01 in Rain Light Rain
9:35 AM 42.8 °F - 42.8 °F 100% 30.10 in 4.0 mi Calm Calm - 0.03 in Rain Light Rain
9:55 AM 42.8 °F 40.1 °F 41.0 °F 93% 30.10 in 7.0 mi NNW 4.6 mph - 0.07 in Rain Rain
10:15 AM 42.8 °F - 42.8 °F 100% 30.11 in 5.0 mi Calm Calm - 0.04 in Rain Rain
10:35 AM 42.8 °F - 42.8 °F 100% 30.11 in 5.0 mi Calm Calm - 0.08 in Rain Rain
10:55 AM 42.8 °F - 41.0 °F 93% 30.11 in 4.0 mi Calm Calm - 0.10 in Rain Rain
11:15 AM 42.8 °F - 41.0 °F 93% 30.11 in 7.0 mi Calm Calm - 0.01 in Rain Light Rain
11:35 AM 42.8 °F - 41.0 °F 93% 30.11 in 7.0 mi Calm Calm - 0.04 in Rain Light Rain
11:55 AM 42.8 °F 40.1 °F 41.0 °F 93% 30.10 in 7.0 mi East 4.6 mph - 0.04 in Rain Light Rain
12:15 PM 42.8 °F - 42.8 °F 100% 30.10 in 7.0 mi Calm Calm - N/A Rain Rain
12:35 PM 42.8 °F - 42.8 °F 100% 30.09 in 7.0 mi Calm Calm - N/A   Light Drizzle
12:55 PM 42.8 °F 41.1 °F 41.0 °F 93% 30.10 in 10.0 mi East 3.5 mph - 0.01 in Rain Rain
1:15 PM 42.8 °F 41.1 °F 42.8 °F 100% 30.08 in 7.0 mi East 3.5 mph - N/A   Light Drizzle
1:35 PM 42.8 °F 41.1 °F 42.8 °F 100% 30.07 in 7.0 mi ESE 3.5 mph - N/A   Overcast
1:55 PM 42.8 °F 40.1 °F 42.8 °F 100% 30.06 in 7.0 mi ESE 4.6 mph - N/A   Overcast
2:15 PM 42.8 °F 41.1 °F 42.8 °F 100% 30.06 in 10.0 mi East 3.5 mph - N/A   Overcast
2:35 PM 42.8 °F 40.1 °F 41.0 °F 93% 30.05 in 10.0 mi East 4.6 mph - N/A   Overcast
2:55 PM 42.8 °F - 42.8 °F 100% 30.06 in 10.0 mi Calm Calm - N/A   Overcast
3:15 PM 42.8 °F 41.1 °F 41.0 °F 93% 30.06 in 10.0 mi East 3.5 mph - N/A   Overcast
3:40 PM 42.8 °F - 41.0 °F 93% 30.06 in 10.0 mi Calm Calm - N/A   Overcast
3:55 PM 44.6 °F - 41.0 °F 87% 30.05 in 10.0 mi Calm Calm - N/A   Overcast
4:15 PM 48.2 °F - 39.2 °F 71% 30.04 in 10.0 mi North 4.6 mph - N/A   Mostly Cloudy
4:35 PM 50.0 °F - 41.0 °F 71% 30.04 in 10.0 mi Calm Calm - N/A   Mostly Cloudy
4:55 PM 51.8 °F - 33.8 °F 50% 30.03 in 10.0 mi WNW 9.2 mph - N/A   Scattered Clouds
5:15 PM 50.0 °F - 32.0 °F 50% 30.03 in 10.0 mi NW 10.4 mph 16.1 mph N/A   Clear
5:35 PM 51.8 °F - 32.0 °F 47% 30.04 in 10.0 mi NW 5.8 mph - N/A   Clear
5:55 PM 50.0 °F - 30.2 °F 47% 30.05 in 10.0 mi NW 8.1 mph 19.6 mph N/A   Clear
6:15 PM 50.0 °F - 30.2 °F 47% 30.05 in 10.0 mi NW 10.4 mph 17.3 mph N/A   Clear
6:35 PM 50.0 °F - 30.2 °F 47% 30.06 in 10.0 mi NW 8.1 mph 19.6 mph N/A   Clear
6:55 PM 48.2 °F - 30.2 °F 50% 30.07 in 10.0 mi NW 10.4 mph - N/A   Clear
7:15 PM 46.4 °F 43.5 °F 28.4 °F 50% 30.08 in 10.0 mi WNW 5.8 mph - N/A   Clear
7:35 PM 46.4 °F 41.9 °F 28.4 °F 50% 30.09 in 10.0 mi NW 9.2 mph 16.1 mph N/A   Clear
7:55 PM 44.6 °F 39.7 °F 26.6 °F 49% 30.10 in 10.0 mi NW 9.2 mph 17.3 mph N/A   Clear
8:15 PM 44.6 °F 38.8 °F 26.6 °F 49% 30.11 in 10.0 mi NNW 11.5 mph 16.1 mph N/A   Mostly Cloudy
8:35 PM 44.6 °F 38.8 °F 26.6 °F 49% 30.12 in 10.0 mi NNW 11.5 mph 19.6 mph N/A   Scattered Clouds
8:55 PM 44.6 °F 41.4 °F 24.8 °F 46% 30.13 in 10.0 mi NNW 5.8 mph - N/A   Scattered Clouds
9:15 PM 44.6 °F 39.7 °F 24.8 °F 46% 30.15 in 10.0 mi NNW 9.2 mph 16.1 mph N/A   Scattered Clouds
9:35 PM 42.8 °F 40.1 °F 24.8 °F 49% 30.15 in 10.0 mi NNW 4.6 mph - N/A   Scattered Clouds
9:55 PM 41.0 °F 36.4 °F 24.8 °F 53% 30.16 in 10.0 mi North 6.9 mph - N/A   Clear
10:15 PM 41.0 °F 39.0 °F 24.8 °F 53% 30.16 in 10.0 mi NW 3.5 mph - N/A   Clear
10:35 PM 37.4 °F 34.9 °F 24.8 °F 60% 30.17 in 10.0 mi NW 3.5 mph - N/A   Clear
10:55 PM 37.4 °F 33.8 °F 24.8 °F 60% 30.18 in 10.0 mi NW 4.6 mph - N/A   Clear
11:15 PM 37.4 °F 34.9 °F 24.8 °F 60% 30.18 in 10.0 mi NW 3.5 mph - N/A   Clear
11:35 PM 37.4 °F - 24.8 °F 60% 30.20 in 10.0 mi Calm Calm - N/A   Clear
11:55 PM 35.6 °F 31.7 °F 23.0 °F 60% 30.20 in 10.0 mi NW 4.6 mph - N/A   Clear